Погода в Веси

Россия / Владимирская область     56°29′09″N   40°21′28″E
темп.,
°C
ветер,
м/с
пор.,
м/с
влажн.,
%
обл.,
%
осадки,
мм/ч
давл.,
гПа
погр.,
м
25 июля, вс
вс2500:00+12сз226219 0.0 101827
03:00+9сз22755 0.0 101910
06:00+12юз11655 0.0 102042
09:00+17юз2250100 0.0 1020383
12:00+21зюз353825 0.0 10201713
15:00+22зюз553582 0.0 10202490
18:00+18юз3552100 0.0 1020118
21:00+17ссз125687 0.0 102115
26 июля, пн
пн2600:00+16ююз2253100 0.0 102222
03:00+16зюз3656100 0.0 1022131
06:00+16з3556100 0.0 1022145
09:00+21з35445 0.0 1022754
12:00+24зсз5634100 0.0 10222562
15:00+24з453626 0.0 10221583
18:00+23з4744100 0.0 1021354
21:00+20зюз375368 0.0 1021137
27 июля, вт
вт2700:00+19з3658100 0.0 1021132
03:00+15зсз35775 0.0 102171
06:00+16сз25715 0.0 1022145
09:00+23ссз23475 0.0 1021559
12:00+27зсз453664 0.0 10202525
15:00+26з353743 0.1 10191835
18:00+23в2252100 0.1 1018100
21:00+19св2268100 0.3 101938
28 июля, ср
ср2800:00+16ю1180100 0.2 101811
03:00+16ююз228287 0.3 101821
06:00+17всв11784 0.1 101743
09:00+23ю22540 0.1 1016520
12:00+28зюз44405 0.0 10141644
15:00+29зюз4532100 0.0 10123092
18:00+19зюз4786100 1.4 1012128
21:00+18зюз4793100 3.8 1011172
29 июля, чт
чт2900:00+17ю41089100 0.3 1010331
03:00+16юв4798100 2.5 1008248
06:00+17юв4797100 0.2 1006362
09:00+17ююв2497100 1.9 1005306
12:00+19юз2492100 0.6 1004366
15:00+19з479393 1.8 1005485
18:00+20зсз588671 1.1 1004647
21:00+17з34950 1.5 100576